This is the latest recevied weather packets stored in our database for station/object KF7PIZ. If no packets are shown the sender has not sent any weather packets the latest 10 day(s).
| Time | Temp. | Humidity | Pressure | Rain* | Wind** | Luminosity | Snow |
|---|---|---|---|---|---|---|---|
| 1777607708 | 15.56° C | 32% | 1017.5 hPa | 0 mm | - | 0 W/m² | - |
| 1777607404 | 15.56° C | 32% | 1017.3 hPa | 0 mm | - | 0 W/m² | - |
| 1777607101 | 16.11° C | 29% | 1017.2 hPa | 0 mm | - | 0 W/m² | - |
| 1777606796 | 16.67° C | 28% | 1017.4 hPa | 0 mm | - | 0 W/m² | - |
| 1777606492 | 16.67° C | 27% | 1017.4 hPa | 0 mm | - | 0 W/m² | - |
| 1777606188 | 16.67° C | 26% | 1017.2 hPa | 0 mm | - | 0 W/m² | - |
| 1777605885 | 17.22° C | 27% | 1017.1 hPa | 0 mm | - | 0 W/m² | - |
| 1777605585 | 17.22° C | 27% | 1017.1 hPa | 0 mm | - | 0 W/m² | - |
| 1777605279 | 17.22° C | 27% | 1016.8 hPa | 0 mm | - | 0 W/m² | - |
| 1777604977 | 17.78° C | 25% | 1017 hPa | 0 mm | - | 0 W/m² | - |
| 1777604672 | 17.78° C | 25% | 1016.9 hPa | 0 mm | - | 0 W/m² | - |
| 1777604369 | 18.33° C | 25% | 1016.6 hPa | 0 mm | - | 0 W/m² | - |
| 1777604068 | 17.78° C | 25% | 1016.6 hPa | 0 mm | - | 0 W/m² | - |
| 1777603766 | 18.33° C | 26% | 1016.5 hPa | 0 mm | - | 0 W/m² | - |
| 1777603462 | 18.33° C | 24% | 1016.5 hPa | 0 mm | - | 2 W/m² | - |
| 1777603158 | 18.89° C | 24% | 1016.5 hPa | 0 mm | - | 4 W/m² | - |
| 1777602854 | 18.89° C | 24% | 1016.5 hPa | 0 mm | - | 6 W/m² | - |
| 1777602549 | 19.44° C | 25% | 1016.4 hPa | 0 mm | - | 9 W/m² | - |
| 1777602245 | 19.44° C | 25% | 1016.4 hPa | 0 mm | - | 11 W/m² | - |
| 1777601941 | 20° C | 23% | 1016.5 hPa | 0 mm | - | 13 W/m² | - |
| 1777601640 | 20° C | 23% | 1016.2 hPa | 0 mm | - | 16 W/m² | - |
| 1777601336 | 20° C | 23% | 1016.1 hPa | 0 mm | - | 19 W/m² | - |
| 1777601033 | 20.56° C | 23% | 1016 hPa | 0 mm | - | 21 W/m² | - |
| 1777600730 | 20.56° C | 23% | 1016.3 hPa | 0 mm | - | 24 W/m² | - |
| 1777600426 | 20.56° C | 23% | 1016.1 hPa | 0 mm | - | 26 W/m² | - |
* Rain latest hour (hover to see other rain measurements)
** Current wind speed in m/s (hover to see current wind gust speed)